TimeMST,TemperatureF,Dew PointF,Humidity,Sea Level PressureIn,VisibilityMPH,Wind Direction,Wind SpeedMPH,Gust SpeedMPH,PrecipitationIn,Events,Conditions,WindDirDegrees,DateUTC
12:53 AM,35.1,27.0,72,30.24,10.0,Calm,Calm,-,N/A,,Partly Cloudy,0,2013-11-11 07:53:00
1:53 AM,34.0,27.0,75,30.24,10.0,Calm,Calm,-,N/A,,Clear,0,2013-11-11 08:53:00
2:53 AM,32.0,26.1,79,30.26,10.0,Calm,Calm,-,N/A,,Clear,0,2013-11-11 09:53:00
3:53 AM,28.0,23.0,81,30.27,10.0,Calm,Calm,-,N/A,,Clear,0,2013-11-11 10:53:00
4:53 AM,30.0,25.0,82,30.29,10.0,North,4.6,-,N/A,,Clear,360,2013-11-11 11:53:00
5:53 AM,30.9,26.1,82,30.32,10.0,Calm,Calm,-,N/A,,Clear,0,2013-11-11 12:53:00
6:53 AM,30.9,26.1,82,30.35,10.0,NNE,3.5,-,N/A,,Clear,20,2013-11-11 13:53:00
7:53 AM,30.9,27.0,85,30.39,10.0,NE,5.8,-,N/A,,Scattered Clouds,40,2013-11-11 14:53:00
8:53 AM,36.0,28.9,76,30.40,10.0,North,5.8,-,N/A,,Scattered Clouds,10,2013-11-11 15:53:00
9:53 AM,41.0,30.9,67,30.40,10.0,Calm,Calm,-,N/A,,Scattered Clouds,0,2013-11-11 16:53:00
10:53 AM,48.0,30.0,50,30.39,10.0,Calm,Calm,-,N/A,,Scattered Clouds,0,2013-11-11 17:53:00
11:53 AM,50.0,32.0,50,30.39,10.0,NNW,4.6,-,N/A,,Partly Cloudy,340,2013-11-11 18:53:00
12:53 PM,52.0,30.0,43,30.36,10.0,WSW,3.5,-,N/A,,Partly Cloudy,250,2013-11-11 19:53:00
1:53 PM,55.9,28.0,34,30.34,10.0,SW,4.6,-,N/A,,Partly Cloudy,230,2013-11-11 20:53:00
2:53 PM,57.0,26.1,30,30.35,10.0,Calm,Calm,-,N/A,,Partly Cloudy,0,2013-11-11 21:53:00
3:53 PM,57.9,27.0,31,30.37,10.0,Calm,Calm,-,N/A,,Partly Cloudy,0,2013-11-11 22:53:00
4:53 PM,53.1,28.0,38,30.38,10.0,Calm,Calm,-,N/A,,Partly Cloudy,0,2013-11-11 23:53:00
5:53 PM,43.0,30.0,60,30.42,10.0,Calm,Calm,-,N/A,,Clear,0,2013-11-12 00:53:00
6:53 PM,39.9,30.0,68,30.44,10.0,North,3.5,-,N/A,,Clear,10,2013-11-12 01:53:00
7:53 PM,35.1,28.0,76,30.47,10.0,North,3.5,-,N/A,,Clear,10,2013-11-12 02:53:00
8:53 PM,34.0,27.0,75,30.47,10.0,North,6.9,-,N/A,,Clear,360,2013-11-12 03:53:00
9:53 PM,33.1,26.1,75,30.47,10.0,North,8.1,-,N/A,,Clear,360,2013-11-12 04:53:00
10:53 PM,30.0,24.1,79,30.49,10.0,NNW,5.8,-,N/A,,Clear,340,2013-11-12 05:53:00
11:53 PM,30.0,24.1,79,30.49,10.0,North,5.8,-,N/A,,Clear,10,2013-11-12 06:53:00